Total_Precipitation_Accumulation
0.00 0.01 0.03 0.06 0.08 0.09 0.18 0.25 0.23 0.16 0.20 0.18 0.10 0.06 0.07 0.08 0.11 0.09 0.06 0.04 0.04 0.04 0.06 0.09 0.14 0.20 0.19 0.17 0.19 0.25 0.28 0.26 0.23 0.24 0.29 0.33 0.33 0.31 0.29 0.28 0.27 0.40 0.20
0.00 0.00 0.03 0.07 0.10 0.10 0.14 0.19 0.24 0.22 0.28 0.23 0.14 0.08 0.07 0.08 0.09 0.05 0.03 0.02 0.03 0.04 0.05 0.08 0.14 0.17 0.20 0.24 0.24 0.26 0.24 0.19 0.16 0.19 0.32 0.39 0.34 0.29 0.24 0.23 0.32 0.40 0.23
0.00 0.00 0.02 0.08 0.09 0.09 0.14 0.18 0.25 0.28 0.37 0.31 0.24 0.15 0.10 0.09 0.09 0.07 0.04 0.06 0.06 0.05 0.05 0.08 0.18 0.21 0.20 0.27 0.28 0.25 0.21 0.14 0.11 0.16 0.32 0.60 0.44 0.25 0.21 0.30 0.42 0.27 0.23
0.00 0.00 0.03 0.10 0.09 0.09 0.13 0.22 0.32 0.33 0.45 0.44 0.26 0.13 0.06 0.09 0.16 0.13 0.12 0.21 0.10 0.02 0.02 0.06 0.15 0.20 0.19 0.23 0.26 0.23 0.21 0.19 0.19 0.19 0.39 0.60 0.60 0.35 0.32 0.42 0.46 0.33 0.30
0.00 0.01 0.08 0.15 0.12 0.10 0.13 0.24 0.34 0.39 0.46 0.41 0.20 0.06 0.03 0.10 0.19 0.21 0.23 0.26 0.06 0.02 0.01 0.04 0.11 0.16 0.16 0.15 0.15 0.14 0.14 0.19 0.29 0.38 0.57 0.66 0.66 0.44 0.40 0.44 0.43 0.32 0.32
0.00 0.02 0.07 0.15 0.15 0.13 0.13 0.26 0.35 0.41 0.46 0.39 0.17 0.06 0.06 0.13 0.17 0.16 0.24 0.13 0.04 0.01 0.01 0.02 0.06 0.10 0.10 0.11 0.12 0.10 0.13 0.16 0.21 0.37 0.58 0.69 0.60 0.40 0.40 0.42 0.41 0.42 0.34
0.01 0.02 0.05 0.10 0.12 0.14 0.15 0.30 0.41 0.42 0.43 0.35 0.16 0.09 0.07 0.09 0.10 0.13 0.18 0.06 0.02 0.01 0.00 0.01 0.04 0.05 0.07 0.09 0.09 0.09 0.09 0.07 0.11 0.20 0.38 0.61 0.48 0.32 0.32 0.37 0.42 0.45 0.37
0.00 0.01 0.03 0.06 0.11 0.15 0.20 0.31 0.38 0.38 0.37 0.31 0.17 0.09 0.08 0.08 0.08 0.14 0.14 0.04 0.01 0.00 0.00 0.01 0.03 0.06 0.07 0.07 0.08 0.10 0.09 0.03 0.03 0.07 0.20 0.37 0.36 0.32 0.28 0.38 0.47 0.45 0.39
0.01 0.01 0.02 0.05 0.08 0.17 0.26 0.32 0.36 0.37 0.36 0.31 0.19 0.11 0.08 0.08 0.07 0.09 0.07 0.01 0.00 0.00 0.00 0.00 0.03 0.04 0.03 0.06 0.08 0.09 0.07 0.03 0.01 0.03 0.09 0.19 0.21 0.21 0.25 0.37 0.49 0.49 0.43
0.01 0.00 0.01 0.03 0.07 0.11 0.14 0.21 0.30 0.34 0.34 0.32 0.22 0.14 0.10 0.08 0.05 0.05 0.02 0.00 0.00 0.00 0.00 0.01 0.02 0.01 0.01 0.04 0.04 0.05 0.04 0.02 0.02 0.04 0.10 0.11 0.10 0.12 0.15 0.19 0.25 0.28 0.30
0.01 0.00 0.01 0.01 0.02 0.04 0.07 0.09 0.19 0.26 0.29 0.26 0.20 0.13 0.11 0.12 0.06 0.04 0.02 0.00 0.00 0.00 0.01 0.02 0.03 0.02 0.01 0.02 0.02 0.03 0.02 0.02 0.02 0.05 0.10 0.09 0.06 0.07 0.09 0.11 0.14 0.16 0.18
0.01 0.01 0.01 0.01 0.01 0.02 0.04 0.15 0.26 0.22 0.17 0.15 0.20 0.12 0.11 0.11 0.10 0.05 0.03 0.01 0.00 0.01 0.01 0.02 0.03 0.01 0.00 0.00 0.01 0.02 0.01 0.02 0.03 0.03 0.06 0.08 0.07 0.04 0.04 0.07 0.09 0.09 0.09
0.01 0.01 0.01 0.01 0.01 0.01 0.08 0.19 0.30 0.37 0.28 0.23 0.17 0.09 0.12 0.07 0.03 0.03 0.04 0.03 0.02 0.02 0.00 0.00 0.00 0.00 0.00 0.00 0.00 0.01 0.01 0.01 0.03 0.05 0.07 0.10 0.13 0.12 0.07 0.05 0.06 0.06 0.06
0.01 0.01 0.01 0.01 0.02 0.01 0.01 0.05 0.12 0.16 0.21 0.19 0.10 0.04 0.04 0.03 0.02 0.01 0.03 0.03 0.02 0.00 0.00 0.00 0.00 0.00 0.00 0.00 0.01 0.02 0.01 0.01 0.06 0.12 0.15 0.16 0.21 0.19 0.13 0.06 0.05 0.05 0.05
0.00 0.00 0.00 0.01 0.01 0.01 0.01 0.01 0.02 0.04 0.11 0.14 0.12 0.03 0.02 0.01 0.01 0.01 0.02 0.02 0.01 0.00 0.00 0.00 0.00 0.00 0.00 0.00 0.03 0.03 0.02 0.02 0.06 0.13 0.25 0.32 0.44 0.42 0.35 0.21 0.11 0.09 0.11
0.00 0.00 0.00 0.01 0.01 0.01 0.00 0.01 0.00 0.02 0.05 0.10 0.10 0.02 0.01 0.01 0.01 0.01 0.03 0.02 0.01 0.01 0.00 0.00 0.00 0.00 0.00 0.00 0.01 0.01 0.02 0.02 0.02 0.06 0.18 0.39 0.53 0.48 0.49 0.45 0.30 0.20 0.17
0.01 0.01 0.02 0.03 0.02 0.02 0.02 0.02 0.01 0.01 0.02 0.06 0.08 0.03 0.02 0.01 0.01 0.01 0.02 0.03 0.02 0.01 0.00 0.00 0.00 0.00 0.00 0.00 0.00 0.00 0.00 0.01 0.01 0.01 0.02 0.09 0.21 0.30 0.38 0.39 0.38 0.30 0.23
0.02 0.04 0.06 0.07 0.05 0.02 0.03 0.03 0.03 0.03 0.03 0.05 0.08 0.05 0.04 0.03 0.02 0.02 0.01 0.04 0.03 0.01 0.00 0.01 0.01 0.01 0.00 0.01 0.01 0.01 0.00 0.00 0.00 0.00 0.00 0.01 0.04 0.10 0.21 0.21 0.24 0.25 0.27
0.03 0.04 0.06 0.09 0.10 0.07 0.06 0.08 0.08 0.08 0.10 0.10 0.13 0.14 0.13 0.12 0.13 0.13 0.12 0.10 0.05 0.03 0.04 0.04 0.04 0.02 0.02 0.03 0.02 0.01 0.00 0.00 0.01 0.00 0.00 0.00 0.01 0.03 0.08 0.07 0.08 0.09 0.11
0.05 0.04 0.04 0.08 0.20 0.28 0.30 0.27 0.31 0.27 0.28 0.29 0.37 0.34 0.27 0.35 0.46 0.43 0.43 0.34 0.25 0.20 0.18 0.12 0.12 0.11 0.07 0.05 0.02 0.01 0.01 0.01 0.00 0.00 0.00 0.00 0.00 0.00 0.01 0.01 0.03 0.02 0.02
0.05 0.04 0.03 0.05 0.13 0.21 0.29 0.34 0.49 0.58 0.60 0.65 0.75 0.69 0.55 0.54 0.69 0.74 0.68 0.64 0.57 0.45 0.40 0.36 0.35 0.38 0.23 0.07 0.07 0.08 0.03 0.01 0.00 0.00 0.00 0.00 0.00 0.00 0.00 0.00 0.01 0.01 0.01
0.03 0.03 0.03 0.05 0.10 0.17 0.26 0.40 0.49 0.59 0.57 0.61 0.72 0.78 0.74 0.68 0.78 0.82 0.89 0.86 0.82 0.78 0.72 0.60 0.59 0.69 0.50 0.21 0.22 0.33 0.21 0.09 0.03 0.01 0.00 0.00 0.00 0.00 0.00 0.00 0.00 0.00 0.00
0.04 0.04 0.05 0.09 0.18 0.32 0.49 0.66 0.66 0.67 0.66 0.68 0.69 0.76 0.80 0.87 0.95 0.95 0.96 0.94 0.87 0.79 0.79 0.84 0.86 1.06 0.86 0.50 0.33 0.38 0.37 0.31 0.15 0.04 0.01 0.00 0.00 0.00 0.00 0.00 0.00 0.00 0.00
0.06 0.09 0.14 0.27 0.43 0.63 0.87 1.01 0.98 0.98 0.99 0.83 0.75 0.68 0.63 0.66 0.78 0.88 0.85 0.83 0.77 0.72 0.82 0.89 0.88 1.09 1.14 0.81 0.55 0.39 0.28 0.24 0.23 0.17 0.06 0.01 0.01 0.01 0.00 0.00 0.00 0.00 0.00
0.14 0.22 0.35 0.55 0.83 1.05 1.21 1.26 1.29 1.21 1.06 0.84 0.64 0.59 0.54 0.55 0.52 0.56 0.61 0.70 0.75 0.76 0.81 0.90 0.93 1.13 1.14 1.02 0.76 0.63 0.53 0.40 0.26 0.24 0.24 0.09 0.02 0.01 0.00 0.00 0.00 0.00 0.00
0.26 0.39 0.55 0.73 0.98 1.11 1.17 1.21 1.26 1.28 1.19 0.98 0.80 0.68 0.57 0.49 0.43 0.40 0.43 0.54 0.70 0.82 0.87 0.91 0.96 1.11 1.14 1.10 0.91 0.71 0.64 0.58 0.51 0.46 0.35 0.23 0.10 0.02 0.02 0.01 0.01 0.01 0.00